Location: Jackson Park
(37.2862°N, 79.9123°W)
Time: 23:01:19
(UTC+00:00)

Explorer 11/Cluster Stage 4 - Pass Details

Date: 13 May 2026
Orbit: 463 x 1173 km, 28.8° (Epoch: 5 June)

Event Time Altitude Azimuth Distance (km) Brightness Sun altitude
Rises 07:16:10 0° 258° (WSW) 3,267 - -27.5°
Reaches altitude 10° 07:19:11 10° 247° (WSW) 2,198 - -27.2°
Maximum altitude 07:23:24 26° 191° (S) 1,234 - -26.7°
Drops below altitude 10° 07:27:01 10° 134° (SE) 1,857 - -26.3°
Exits shadow 07:29:10 - 121° (ESE) 2,594 9.3 -26.1°
Sets 07:29:22 0° 121° (ESE) 2,662 9.4 -26.1°
